Weather History for Ft Lauderdale, FL

Change the Weather History Date:

Thursday, February 7, 2013

  Actual Average Record
Temperature  
Mean Temperature 75 °F 70 °F  
Max Temperature 79 °F 77 °F 88 °F (1949)
Min Temperature 70 °F 64 °F 39 °F (1978)
Degree Days  
Heating Degree Days 0 1  
Month to date heating degree days 2 7  
Since 1 July heating degree days 26 87  
Cooling Degree Days 10 6  
Month to date cooling degree days 22 42  
Year to date cooling degree days 277 212  
Growing Degree Days 24 (Base 50)    
Moisture  
Dew Point 63 °F    
Average Humidity 71    
Maximum Humidity 84    
Minimum Humidity 58    
Precipitation  
Precipitation 0.00 in 0.10 in 0.90 in (1953)
Month to date precipitation 0.00 0.75  
Year to date precipitation 0.98 4.38  
Snow  
Snow 0.00 in - - ()
Month to date snowfall 0.0  
Since 1 July snowfall 0.0  
Snow Depth 0.00 in    
Sea Level Pressure  
Sea Level Pressure 30.02 in    
Wind  
Wind Speed 9 mph (SE)    
Max Wind Speed 16 mph    
Max Gust Speed 24 mph    
Visibility 10 miles    
Events      
T = Trace of Precipitation, MM = Missing Value Source: NWS Daily Summary

Daily Weather History Graph

Daily Weather History Graph

Search for Another Location

Airport:

Trip Planner

Search our weather history database for the weather conditions in past years. The results will help you decide how hot, cold, wet, or windy it might be!

Date:

Astronomy

Feb. 07, 2013 Rise Set
Actual Time 7:01 AM EST 6:08 PM EST
Civil Twilight 6:37 AM EST 6:32 PM EST
Nautical Twilight 6:10 AM EST 6:59 PM EST
Astronomical Twilight 5:43 AM EST 7:26 PM EST
Moon 4:30 AM EST (2/7) 3:38 PM EST (2/7)
Length of Visible Light 11h 54m
Length of Day
11h 07m
Waning Crescent, 9% of the Moon is Illuminated
Feb 7
Waning Crescent
Feb 10
New
Feb 17
First Quarter
Feb 25
Full
Mar 4
Last Quarter

Hourly Weather History & Observations

Time (EST) Temp. Dew Point Humidity Pressure Visibility Wind Dir Wind Speed Gust Speed Precip Events Conditions
12:53 AM 72.0 °F 62.1 °F 71% 30.07 in 10.0 mi ESE 11.5 mph - N/A   Scattered Clouds
1:53 AM 72.0 °F 62.1 °F 71% 30.06 in 10.0 mi SE 11.5 mph - N/A   Scattered Clouds
2:53 AM 72.0 °F 62.1 °F 71% 30.05 in 10.0 mi SE 6.9 mph - N/A   Mostly Cloudy
3:53 AM 72.0 °F 62.1 °F 71% 30.04 in 10.0 mi SE 10.4 mph - N/A   Scattered Clouds
4:53 AM 71.1 °F 61.0 °F 70% 30.04 in 10.0 mi ESE 5.8 mph - N/A   Scattered Clouds
5:53 AM 71.1 °F 61.0 °F 70% 30.04 in 10.0 mi ESE 8.1 mph - N/A   Scattered Clouds
6:53 AM 71.1 °F 62.1 °F 73% 30.05 in 10.0 mi ESE 6.9 mph - N/A   Partly Cloudy
7:53 AM 73.0 °F 63.0 °F 71% 30.06 in 10.0 mi ESE 8.1 mph - N/A   Partly Cloudy
8:53 AM 75.0 °F 62.1 °F 64% 30.07 in 10.0 mi SE 10.4 mph - N/A   Partly Cloudy
9:53 AM 77.0 °F 63.0 °F 62% 30.07 in 10.0 mi SE 10.4 mph - N/A   Partly Cloudy
10:53 AM 78.1 °F 64.0 °F 62% 30.07 in 10.0 mi SSE 10.4 mph - N/A   Scattered Clouds
11:53 AM 78.1 °F 63.0 °F 60% 30.04 in 10.0 mi SE 13.8 mph 21.9 mph N/A   Partly Cloudy
12:53 PM 78.1 °F 63.0 °F 60% 30.01 in 9.0 mi SSE 9.2 mph 18.4 mph N/A   Partly Cloudy
1:53 PM 78.1 °F 63.0 °F 60% 29.98 in 10.0 mi SSE 12.7 mph 18.4 mph N/A   Partly Cloudy
2:53 PM 78.1 °F 64.0 °F 62% 29.97 in 10.0 mi SE 13.8 mph 20.7 mph N/A   Partly Cloudy
3:53 PM 78.1 °F 64.9 °F 64% 29.96 in 10.0 mi SSE 11.5 mph - N/A   Partly Cloudy
4:53 PM 77.0 °F 64.9 °F 66% 29.96 in 10.0 mi SE 11.5 mph - N/A   Partly Cloudy
5:53 PM 75.0 °F 64.0 °F 69% 29.97 in 10.0 mi SSE 8.1 mph - N/A   Partly Cloudy
6:53 PM 73.9 °F 63.0 °F 68% 29.97 in 10.0 mi South 5.8 mph - N/A   Partly Cloudy
7:53 PM 73.0 °F 62.1 °F 68% 30.00 in 10.0 mi Calm Calm - N/A   Clear
8:53 PM 71.1 °F 63.0 °F 75% 30.01 in 10.0 mi South 3.5 mph - N/A   Clear
9:53 PM 70.0 °F 64.0 °F 81% 30.02 in 10.0 mi SSW 4.6 mph - N/A   Clear
10:53 PM 70.0 °F 64.9 °F 84% 30.00 in 10.0 mi SSW 5.8 mph - N/A   Clear
11:53 PM 70.0 °F 64.9 °F 84% 29.98 in 10.0 mi SSW 6.9 mph - N/A   Clear